Regional Weather Roundup
Issued by NWS

Home | Current Version | Previous Version | Text Only | Print | Product List | Glossary On
Versions: 1 2 3 4 5 6 7 8 9 10 11 12 13 14 15 16 17 18 19 20 21 22 23 24 25 26 27 28 29 30 31 32 33 34 35 36 37 38 39 40 41 42 43 44 45 46 47 48 49 50
000
ASUS44 KFWD 241203
RWRTX
NORTH TEXAS HOURLY WEATHER ROUNDUP
NATIONAL WEATHER SERVICE FORT WORTH TX
700 AM CDT FRI OCT 24 2014

NOTE: "FAIR" INDICATES FEW OR NO CLOUDS BELOW 12,000 FEET WITH NO
SIGNIFICANT WEATHER AND/OR OBSTRUCTIONS TO VISIBILITY.

TXZ118-119-241300-
DALLAS/FORT WORTH METROPLEX

CITY           SKY/WX    TMP DP  RH WIND       PRES   REMARKS
DFW AIRPORT    MOCLDY    61  55  81 SE5       30.13R
6HR MIN TEMP:  61; 6HR MAX TEMP:  65;

DALLAS LOVE    MOCLDY    63  56  78 SE6       30.14R
6HR MIN TEMP:  63; 6HR MAX TEMP:  66;

FTW MEACHAM    MOCLDY    63  56  78 SE6       30.12R
6HR MIN TEMP:  62; 6HR MAX TEMP:  67;

DAL-EXECUTIVE  CLOUDY    62  56  80 SE5       30.14R
6HR MIN TEMP:  61; 6HR MAX TEMP:  65;

FTW-ALLIANCE   MOCLDY    61  56  83 S5        30.12R
6HR MIN TEMP:  60; 6HR MAX TEMP:  63;

FTW-NAS-JRB    PTCLDY    68  54  60 SE6       30.16S
6HR MIN TEMP:  67; 6HR MAX TEMP:  72;

FTW-SPINKS     CLEAR     61  55  82 SE5       30.14R
ARLINGTON      PTCLDY    61  55  81 SE5       30.13R
6HR MIN TEMP:  60; 6HR MAX TEMP:  64;

GRAND PRAIRIE  PTCLDY    63  57  82 MISG      30.15R
ADDISON        MOCLDY    63  55  77 SE7       30.14R
MESQUITE       MOCLDY    57  55  94 E3        30.15R
LANCASTER      MOCLDY    57  53  88 CALM      30.16R
6HR MIN TEMP:  56; 6HR MAX TEMP:  60;

$$

TXZ091>094-102>105-117-120-121-131>134-241300-
NORTH CENTRAL TEXAS

CITY           SKY/WX    TMP DP  RH WIND       PRES   REMARKS
SHRMAN/DENISON PTCLDY    60  56  89 SE8       30.14S
6HR MIN TEMP:  57; 6HR MAX TEMP:  63;

GAINESVILLE    CLEAR     57  55  93 SE6       30.14S
6HR MIN TEMP:  57; 6HR MAX TEMP:  60;

BOWIE          CLEAR     56  55  96 SE3       30.11S
6HR MIN TEMP:  56; 6HR MAX TEMP:  62;

BRIDGEPORT     CLEAR     57  57 100 E3        30.13S
6HR MIN TEMP:  56; 6HR MAX TEMP:  62;

DECATUR        CLEAR     62  54  75 S6        30.12S
6HR MIN TEMP:  62; 6HR MAX TEMP:  64;

DENTON         CLEAR     61  56  83 SE8       30.13R
6HR MIN TEMP:  59; 6HR MAX TEMP:  63;

MCKINNEY       PTCLDY    58  55  90 CALM      30.14R
6HR MIN TEMP:  57; 6HR MAX TEMP:  61;

GREENVILLE     CLOUDY    54  52  94 CALM      30.15S
ROCKWALL       CLOUDY    59  55  87 S5        30.14R
6HR MIN TEMP:  57; 6HR MAX TEMP:  61;

TERRELL        MOCLDY    59  54  83 CALM      30.15S
6HR MIN TEMP:  57; 6HR MAX TEMP:  61;

WAXAHACHIE     MOCLDY    59  56  88 SE3       30.16R
6HR MIN TEMP:  59; 6HR MAX TEMP:  62;

CLEBURNE       PTCLDY    61  57  88 S6        30.15R
GRANBURY       CLEAR     62  56  82 SE3       30.13S
6HR MIN TEMP:  62; 6HR MAX TEMP:  66;

$$

TXZ083>090-098>101-113>116-127>130-139>142-154-155-241300-
WESTERN NORTH TEXAS

CITY           SKY/WX    TMP DP  RH WIND       PRES   REMARKS
WICHITA FALLS  CLEAR     58  55  90 S7        30.08R
6HR MIN TEMP:  58; 6HR MAX TEMP:  65;

WF-KICKAPOO    CLEAR     59  56  91 S6        30.10R
6HR MIN TEMP:  59; 6HR MAX TEMP:  65;

VERNON         CLEAR     59  57  94 S7        30.09R
ABILENE        CLEAR     61  59  93 SW7       30.13R
6HR MIN TEMP:  61; 6HR MAX TEMP:  65;

ABILENE-DYESS  CLEAR     63  59  85 VRB3      30.11R
6HR MIN TEMP:  62; 6HR MAX TEMP:  66;

BRECKENRIDGE   CLEAR     63  60  91 S6        30.11R FOG
6HR MIN TEMP:  63; 6HR MAX TEMP:  69;

MINERAL WELLS  CLEAR     59  56  89 SE6       30.11R FOG
6HR MIN TEMP:  59; 6HR MAX TEMP:  64;

STEPHENVILLE   CLEAR     58  55  88 S3        30.15S
6HR MIN TEMP:  58; 6HR MAX TEMP:  63;

COMANCHE       CLEAR     60  60  98 S6        30.14S
6HR MIN TEMP:  60; 6HR MAX TEMP:  66;

COLEMAN        CLEAR     58  58 100 SW3       30.15R FOG
6HR MIN TEMP:  58; 6HR MAX TEMP:  64;

BRADY          CLEAR     59  57  94 CALM      30.15R
$$

TXZ143>147-156>162-174-175-241300-
CENTRAL TEXAS

CITY           SKY/WX    TMP DP  RH WIND       PRES   REMARKS
WACO           CLEAR     62  54  74 S6        30.14R
6HR MIN TEMP:  61; 6HR MAX TEMP:  66;

WACO-MCGREGOR  CLEAR     57  50  77 S3        30.15S
6HR MIN TEMP:  57; 6HR MAX TEMP:  63;

HILLSBORO      CLEAR     62  53  73 S7        30.15R
6HR MIN TEMP:  61; 6HR MAX TEMP:  65;

CORSICANA      CLOUDY    57  53  86 SE5       30.17R
6HR MIN TEMP:  57; 6HR MAX TEMP:  63;

MEXIA          CLOUDY    56  54  90 CALM      30.14R
6HR MIN TEMP:  56; 6HR MAX TEMP:  60;

HEARNE         CLEAR     55  53  94 CALM      30.16R
6HR MIN TEMP:  55; 6HR MAX TEMP:  61;

CAMERON        CLEAR     57  55  93 CALM      30.14S
6HR MIN TEMP:  57; 6HR MAX TEMP:  63;

TEMPLE         CLEAR     59  50  72 S3        30.13S
6HR MIN TEMP:  57; 6HR MAX TEMP:  63;

KILLEEN        CLEAR     61  55  81 S6        30.14R
6HR MIN TEMP:  59; 6HR MAX TEMP:  65;

KILLEEN-SKYLRK CLEAR     61  50  67 S5        30.12R
6HR MIN TEMP:  59; 6HR MAX TEMP:  64;

FORT HOOD      CLEAR     62  56  80 SE3       30.14R
6HR MIN TEMP:  62; 6HR MAX TEMP:  67;

GATESVILLE     CLEAR     57  55  94 CALM      30.16S
HAMILTON       CLEAR     59  57  91 S6        30.15R
6HR MIN TEMP:  59; 6HR MAX TEMP:  63;

LAMPASAS       CLEAR     59  57  92 CALM      30.13S
6HR MIN TEMP:  58; 6HR MAX TEMP:  63;

$$

TXZ095>097-106>112-122>126-135>138-148>153-164>167-241300-
EAST TEXAS

CITY           SKY/WX    TMP DP  RH WIND       PRES   REMARKS
PARIS          CLEAR     52  45  76 E6        30.17R
6HR MIN TEMP:  52; 6HR MAX TEMP:  55;

SULPHUR SPRNGS PTCLDY    53  52  97 SE5       30.17S
6HR MIN TEMP:  53; 6HR MAX TEMP:  59;

MOUNT PLEASANT CLOUDY    53  52  97 CALM      30.18S
6HR MIN TEMP:  51; 6HR MAX TEMP:  56;

MINEOLA        MOCLDY    54  54 100 CALM      30.16S
TYLER          CLOUDY    58  53  84 S5        30.15R
6HR MIN TEMP:  56; 6HR MAX TEMP:  59;

LONGVIEW       CLEAR     51  49  92 CALM      30.15R
6HR MIN TEMP:  50; 6HR MAX TEMP:  55;

MARSHALL       CLEAR     51  49  92 CALM      30.18S
6HR MIN TEMP:  51; 6HR MAX TEMP:  53;

ATHENS         CLOUDY    54  52  94 CALM      30.14S
PALESTINE      CLOUDY    56  53  88 CALM      30.17R
JACKSONVILLE   CLEAR     56  50  82 CALM      30.17R
HENDERSON      CLEAR     50  50 100 CALM      30.17R
6HR MIN TEMP:  49; 6HR MAX TEMP:  54;

NACOGDOCHES    CLEAR     46  45  93 CALM      30.16R
6HR MIN TEMP:  46; 6HR MAX TEMP:  50;

LUFKIN         CLEAR     53  49  86 CALM      30.15R FOG
6HR MIN TEMP:  52; 6HR MAX TEMP:  56;

$$

SUPPLEMENTAL OBSERVATIONS (CENTRAL)

CITY           SKY/WX    TMP DP  RH WIND       PRES   REMARKS
$$

SUPPLEMENTAL OBSERVATIONS (WEST)

CITY           SKY/WX    TMP DP  RH WIND       PRES   REMARKS
$$

SUPPLEMENTAL OBSERVATIONS (EAST)

CITY           SKY/WX    TMP DP  RH WIND       PRES   REMARKS
$$

SUPPLEMENTAL OBSERVATIONS ARE A COLLECTION OF AUTOMATED INSTRUMENTS
THAT ARE MAINTAINED BY A VARIETY OF FEDERAL AND STATE AGENCIES.
CERTAIN ELEMENTS...SUCH AS HUMIDITY VALUES AND SUSTAINED WIND
SPEEDS...MAY BE APPROXIMATED.




USA.gov is the U.S. government's official web portal to all federal, state and local government web resources and services.